| time (UTC) | temp F | wind direction | speed knots | gust knots | rain 1hr in | rain 24hr in | rain mn in | humidity % | barometer mb |
| 20260505224514 | 88 | 181 | 4.3 | 5.2 | 0.00 | 0.00 | 0.00 | 64 | 1004.7 |
| 20260505224011 | 88 | 209 | 7.8 | 11.3 | 0.00 | 0.00 | 0.00 | 59 | 1004.7 |
| 20260505223508 | 89 | 182 | 4.3 | 10.4 | 0.00 | 0.00 | 0.00 | 58 | 1004.7 |
| 20260505223004 | 88 | 204 | 6.1 | 13.0 | 0.00 | 0.00 | 0.00 | 59 | 1004.7 |
| 20260505222500 | 89 | 212 | 6.1 | 11.3 | 0.00 | 0.00 | 0.00 | 58 | 1004.6 |
| 20260505221956 | 89 | 200 | 0.9 | 4.3 | 0.00 | 0.00 | 0.00 | 59 | 1004.7 |
| 20260505221453 | 89 | 142 | 0.9 | 6.1 | 0.00 | 0.00 | 0.00 | 60 | 1004.5 |
| 20260505220950 | 89 | 159 | 1.7 | 5.2 | 0.00 | 0.00 | 0.00 | 59 | 1004.6 |
| 20260505220447 | 89 | 206 | 4.3 | 5.2 | 0.00 | 0.00 | 0.00 | 59 | 1004.5 |
| 20260505215945 | 89 | 215 | 6.1 | 7.0 | 0.00 | 0.00 | 0.00 | 58 | 1004.4 |
| 20260505215443 | 88 | 204 | 6.1 | 12.2 | 0.00 | 0.00 | 0.00 | 59 | 1004.4 |
| 20260505214940 | 89 | 188 | 3.5 | 9.6 | 0.00 | 0.00 | 0.00 | 58 | 1004.5 |
| 20260505214438 | 91 | 218 | 4.3 | 5.2 | 0.00 | 0.00 | 0.00 | 56 | 1004.7 |
| 20260505213935 | 91 | 209 | 4.3 | 5.2 | 0.00 | 0.00 | 0.00 | 56 | 1004.7 |
| 20260505213433 | 91 | 216 | 4.3 | 8.7 | 0.00 | 0.00 | 0.00 | 55 | 1004.6 |
| 20260505212929 | 90 | 190 | 0.0 | 6.1 | 0.00 | 0.00 | 0.00 | 57 | 1004.7 |
| 20260505212426 | 90 | 199 | 6.1 | 9.6 | 0.00 | 0.00 | 0.00 | 56 | 1004.7 |
| 20260505211922 | 90 | 223 | 3.5 | 5.2 | 0.00 | 0.00 | 0.00 | 55 | 1004.9 |
| 20260505211420 | 91 | 207 | 3.5 | 11.3 | 0.00 | 0.00 | 0.00 | 53 | 1004.8 |
| 20260505210916 | 91 | 197 | 1.7 | 4.3 | 0.00 | 0.00 | 0.00 | 54 | 1004.8 |
| 20260505210414 | 90 | 200 | 5.2 | 12.2 | 0.00 | 0.00 | 0.00 | 56 | 1005.1 |
| 20260505205910 | 92 | 212 | 1.7 | 4.3 | 0.00 | 0.00 | 0.00 | 53 | 1005.4 |
| 20260505205409 | 91 | 271 | 0.9 | 7.0 | 0.00 | 0.00 | 0.00 | 53 | 1005.2 |
| 20260505204905 | 91 | 203 | 3.5 | 6.1 | 0.00 | 0.00 | 0.00 | 54 | 1005.3 |
| 20260505204403 | 90 | 226 | 2.6 | 8.7 | 0.00 | 0.00 | 0.00 | 55 | 1005.2 |
| 20260505203900 | 87 | 212 | 6.1 | 9.6 | 0.00 | 0.00 | 0.00 | 58 | 1005.3 |
| 20260505203356 | 88 | 204 | 7.8 | 12.2 | 0.00 | 0.00 | 0.00 | 58 | 1005.4 |
| 20260505202852 | 89 | 202 | 8.7 | 14.8 | 0.00 | 0.00 | 0.00 | 57 | 1005.5 |
| 20260505202349 | 89 | 224 | 3.5 | 6.1 | 0.00 | 0.00 | 0.00 | 57 | 1005.4 |
| 20260505201846 | 89 | 197 | 6.1 | 13.0 | 0.00 | 0.00 | 0.00 | 59 | 1005.5 |
| 20260505201343 | 90 | 276 | 1.7 | 7.8 | 0.00 | 0.00 | 0.00 | 56 | 1005.4 |
| 20260505200841 | 89 | 219 | 3.5 | 12.2 | 0.00 | 0.00 | 0.00 | 59 | 1005.6 |
| 20260505200338 | 88 | 196 | 8.7 | 13.9 | 0.00 | 0.00 | 0.00 | 59 | 1005.5 |
| 20260505195833 | 88 | 219 | 1.7 | 9.6 | 0.00 | 0.00 | 0.00 | 61 | 1005.8 |
| 20260505195331 | 87 | 206 | 9.6 | 15.6 | 0.00 | 0.00 | 0.00 | 61 | 1005.7 |
| 20260505194828 | 87 | 209 | 8.7 | 13.0 | 0.00 | 0.00 | 0.00 | 59 | 1005.6 |
| 20260505194325 | 87 | 214 | 8.7 | 16.5 | 0.00 | 0.00 | 0.00 | 60 | 1005.8 |
| 20260505193820 | 87 | 214 | 7.0 | 13.0 | 0.00 | 0.00 | 0.00 | 60 | 1005.6 |
| 20260505193318 | 87 | 202 | 4.3 | 11.3 | 0.00 | 0.00 | 0.00 | 60 | 1005.7 |
| 20260505192816 | 86 | 224 | 4.3 | 13.9 | 0.00 | 0.00 | 0.00 | 63 | 1005.8 |
| 20260505192314 | 87 | 214 | 4.3 | 8.7 | 0.00 | 0.00 | 0.00 | 63 | 1005.7 |
| 20260505191812 | 86 | 211 | 8.7 | 11.3 | 0.00 | 0.00 | 0.00 | 64 | 1005.7 |
| 20260505191309 | 85 | 201 | 11.3 | 12.2 | 0.00 | 0.00 | 0.00 | 64 | 1005.8 |
| 20260505190806 | 85 | 208 | 6.1 | 11.3 | 0.00 | 0.00 | 0.00 | 66 | 1006.0 |
| 20260505190301 | 85 | 207 | 15.6 | 18.2 | 0.00 | 0.00 | 0.00 | 65 | 1006.0 |
| 20260505185757 | 85 | 204 | 6.1 | 10.4 | 0.00 | 0.00 | 0.00 | 66 | 1006.0 |
| 20260505185254 | 84 | 206 | 7.0 | 13.0 | 0.00 | 0.00 | 0.00 | 66 | 1006.3 |
| 20260505184750 | 85 | 210 | 14.8 | 14.8 | 0.00 | 0.00 | 0.00 | 65 | 1006.2 |
| 20260505184248 | 84 | 196 | 4.3 | 10.4 | 0.00 | 0.00 | 0.00 | 67 | 1006.2 |
| 20260505183744 | 85 | 209 | 9.6 | 11.3 | 0.00 | 0.00 | 0.00 | 66 | 1006.3 |
| 20260505183242 | 84 | 210 | 6.1 | 11.3 | 0.00 | 0.00 | 0.00 | 67 | 1006.2 |
| 20260505182738 | 84 | 212 | 11.3 | 13.0 | 0.00 | 0.00 | 0.00 | 66 | 1006.3 |
| 20260505182235 | 84 | 213 | 11.3 | 12.2 | 0.00 | 0.00 | 0.00 | 67 | 1006.4 |
| 20260505181731 | 83 | 205 | 3.5 | 17.4 | 0.00 | 0.00 | 0.00 | 69 | 1006.5 |
| 20260505181229 | 83 | 180 | 1.7 | 13.0 | 0.00 | 0.00 | 0.00 | 69 | 1006.2 |
| 20260505180725 | 82 | 211 | 10.4 | 16.5 | 0.00 | 0.00 | 0.00 | 69 | 1006.2 |
| 20260505180222 | 83 | 213 | 9.6 | 15.6 | 0.00 | 0.00 | 0.00 | 68 | 1006.2 |
| 20260505175718 | 83 | 190 | 2.6 | 12.2 | 0.00 | 0.00 | 0.00 | 69 | 1006.4 |
| 20260505175215 | 83 | 221 | 6.1 | 11.3 | 0.00 | 0.00 | 0.00 | 68 | 1006.5 |
| 20260505174711 | 82 | 218 | 9.6 | 13.0 | 0.00 | 0.00 | 0.00 | 68 | 1006.4 |
| 20260505174209 | 82 | 175 | 2.6 | 13.0 | 0.00 | 0.00 | 0.00 | 70 | 1006.4 |
| 20260505173704 | 81 | 183 | 7.8 | 14.8 | 0.00 | 0.00 | 0.00 | 70 | 1006.4 |
| 20260505173201 | 82 | 210 | 7.0 | 13.9 | 0.00 | 0.00 | 0.00 | 69 | 1006.5 |
| 20260505172658 | 82 | 198 | 6.1 | 15.6 | 0.00 | 0.00 | 0.00 | 70 | 1006.3 |
| 20260505172155 | 82 | 207 | 4.3 | 12.2 | 0.00 | 0.00 | 0.00 | 70 | 1006.4 |
| 20260505171655 | 81 | 220 | 11.3 | 13.0 | 0.00 | 0.00 | 0.00 | 70 | 1006.4 |
| 20260505171152 | 81 | 198 | 5.2 | 13.9 | 0.00 | 0.00 | 0.00 | 71 | 1006.3 |
| 20260505170649 | 81 | 149 | 4.3 | 10.4 | 0.00 | 0.00 | 0.00 | 71 | 1006.3 |
| 20260505170146 | 80 | 202 | 7.8 | 13.0 | 0.00 | 0.00 | 0.00 | 72 | 1006.4 |
| 20260505165646 | 80 | 207 | 10.4 | 13.0 | 0.00 | 0.00 | 0.00 | 71 | 1006.3 |
| 20260505165143 | 80 | 202 | 11.3 | 14.8 | 0.00 | 0.00 | 0.00 | 71 | 1006.0 |
| 20260505164638 | 80 | 192 | 10.4 | 18.2 | 0.00 | 0.00 | 0.00 | 71 | 1006.2 |
| 20260505164136 | 80 | 209 | 10.4 | 14.8 | 0.00 | 0.00 | 0.00 | 72 | 1006.1 |
| 20260505163634 | 80 | 206 | 12.2 | 13.9 | 0.00 | 0.00 | 0.00 | 73 | 1005.9 |
| 20260505163131 | 79 | 214 | 10.4 | 16.5 | 0.00 | 0.00 | 0.00 | 73 | 1006.0 |
| 20260505162628 | 80 | 204 | 7.8 | 19.1 | 0.00 | 0.00 | 0.00 | 73 | 1006.0 |
| 20260505162126 | 79 | 202 | 14.8 | 22.6 | 0.00 | 0.00 | 0.00 | 73 | 1006.0 |
| 20260505161623 | 79 | 209 | 13.9 | 20.0 | 0.00 | 0.00 | 0.00 | 73 | 1006.1 |
| 20260505161120 | 80 | 197 | 7.0 | 11.3 | 0.00 | 0.00 | 0.00 | 74 | 1006.2 |
| 20260505160618 | 79 | 212 | 7.8 | 14.8 | 0.00 | 0.00 | 0.00 | 74 | 1006.2 |
| 20260505160115 | 78 | 201 | 8.7 | 16.5 | 0.00 | 0.00 | 0.00 | 75 | 1006.4 |
| 20260505153055 | 77 | 210 | 7.8 | 15.6 | 0.00 | 0.00 | 0.00 | 78 | 1006.4 |
| 20260505152551 | 77 | 194 | 4.3 | 8.7 | 0.00 | 0.00 | 0.00 | 78 | 1006.4 |
| 20260505152048 | 77 | 204 | 9.6 | 11.3 | 0.00 | 0.00 | 0.00 | 78 | 1006.4 |
| 20260505151548 | 77 | 163 | 3.5 | 7.8 | 0.00 | 0.00 | 0.00 | 78 | 1006.2 |
| 20260505151046 | 77 | 196 | 7.0 | 14.8 | 0.00 | 0.00 | 0.00 | 78 | 1006.2 |
| 20260505150542 | 77 | 212 | 7.0 | 13.9 | 0.00 | 0.00 | 0.00 | 78 | 1006.3 |
| 20260505140507 | 74 | 215 | 9.6 | 10.4 | 0.00 | 0.00 | 0.00 | 82 | 1005.9 |
| 20260505124920 | 71 | 180 | 2.6 | 6.1 | 0.00 | 0.00 | 0.00 | 88 | 1005.8 |
| 20260505124417 | 70 | 204 | 4.3 | 10.4 | 0.00 | 0.00 | 0.00 | 89 | 1005.7 |
| 20260505123913 | 70 | 196 | 7.0 | 9.6 | 0.00 | 0.00 | 0.00 | 89 | 1005.5 |
| 20260505123410 | 70 | 199 | 7.8 | 10.4 | 0.00 | 0.00 | 0.00 | 89 | 1005.5 |
| 20260505122906 | 70 | 216 | 3.5 | 7.8 | 0.00 | 0.00 | 0.00 | 89 | 1005.3 |
| 20260505122403 | 70 | 197 | 4.3 | 13.0 | 0.00 | 0.00 | 0.00 | 89 | 1005.4 |
| 20260505121900 | 70 | 184 | 5.2 | 8.7 | 0.00 | 0.00 | 0.00 | 90 | 1005.2 |
| 20260505121357 | 70 | 178 | 5.2 | 7.8 | 0.00 | 0.00 | 0.00 | 90 | 1005.3 |
| 20260505120853 | 70 | 158 | 2.6 | 5.2 | 0.00 | 0.00 | 0.00 | 90 | 1005.1 |
| 20260505120349 | 69 | 188 | 3.5 | 6.1 | 0.00 | 0.00 | 0.00 | 90 | 1005.1 |
| 20260505115848 | 69 | 140 | 3.5 | 9.6 | 0.00 | 0.00 | 0.00 | 90 | 1005.1 |
| 20260505115345 | 69 | 176 | 3.5 | 10.4 | 0.00 | 0.00 | 0.00 | 90 | 1005.2 |
| 20260505114843 | 69 | 211 | 3.5 | 6.1 | 0.00 | 0.00 | 0.00 | 90 | 1005.2 |
| 20260505114339 | 69 | 203 | 6.1 | 9.6 | 0.00 | 0.00 | 0.00 | 90 | 1005.2 |
| 20260505113836 | 69 | 204 | 2.6 | 11.3 | 0.00 | 0.00 | 0.00 | 90 | 1005.1 |
| 20260505113332 | 69 | 185 | 3.5 | 12.2 | 0.00 | 0.00 | 0.00 | 90 | 1005.1 |
| 20260505112828 | 69 | 198 | 8.7 | 13.0 | 0.00 | 0.00 | 0.00 | 90 | 1005.1 |
| 20260505112326 | 69 | 176 | 7.8 | 11.3 | 0.00 | 0.00 | 0.00 | 90 | 1005.3 |
| 20260505111821 | 69 | 184 | 5.2 | 9.6 | 0.00 | 0.00 | 0.00 | 90 | 1005.3 |
| 20260505111317 | 69 | 201 | 4.3 | 9.6 | 0.00 | 0.00 | 0.00 | 90 | 1005.2 |
| 20260505110813 | 69 | 187 | 7.8 | 7.8 | 0.00 | 0.00 | 0.00 | 89 | 1004.8 |
| 20260505110311 | 70 | 213 | 10.4 | 10.4 | 0.00 | 0.00 | 0.00 | 89 | 1004.8 |
| 20260505101745 | 71 | 186 | 4.3 | 13.0 | 0.00 | 0.00 | 0.00 | 87 | 1004.9 |
| 20260505101241 | 71 | 197 | 6.1 | 12.2 | 0.00 | 0.00 | 0.00 | 87 | 1005.1 |
| 20260505100737 | 71 | 179 | 5.2 | 11.3 | 0.00 | 0.00 | 0.00 | 87 | 1005.1 |
| 20260505100234 | 71 | 182 | 8.7 | 12.2 | 0.00 | 0.00 | 0.00 | 86 | 1004.9 |
| 20260505095729 | 71 | 199 | 9.6 | 16.5 | 0.00 | 0.00 | 0.00 | 86 | 1004.9 |
| 20260505095228 | 71 | 195 | 6.1 | 18.2 | 0.00 | 0.00 | 0.00 | 86 | 1005.1 |
| 20260505094723 | 71 | 188 | 5.2 | 11.3 | 0.00 | 0.00 | 0.00 | 85 | 1005.1 |
| 20260505094220 | 72 | 198 | 10.4 | 17.4 | 0.00 | 0.00 | 0.00 | 85 | 1005.0 |
| 20260505093716 | 71 | 179 | 8.7 | 13.9 | 0.00 | 0.00 | 0.00 | 85 | 1005.1 |
| 20260505093214 | 72 | 166 | 7.0 | 13.9 | 0.00 | 0.00 | 0.00 | 85 | 1005.0 |
| 20260505092710 | 71 | 180 | 7.8 | 15.6 | 0.00 | 0.00 | 0.00 | 85 | 1005.1 |
| 20260505092209 | 71 | 208 | 8.7 | 12.2 | 0.00 | 0.00 | 0.00 | 85 | 1005.3 |
| 20260505091706 | 71 | 198 | 8.7 | 14.8 | 0.00 | 0.00 | 0.00 | 85 | 1005.4 |
| 20260505091204 | 71 | 204 | 8.7 | 12.2 | 0.00 | 0.00 | 0.00 | 86 | 1005.4 |
| 20260505090701 | 71 | 204 | 7.0 | 13.0 | 0.00 | 0.00 | 0.00 | 86 | 1005.4 |
| 20260505090159 | 71 | 200 | 9.6 | 13.9 | 0.00 | 0.00 | 0.00 | 86 | 1005.3 |
| 20260505085656 | 71 | 208 | 4.3 | 11.3 | 0.00 | 0.00 | 0.00 | 87 | 1005.4 |
| 20260505085154 | 71 | 219 | 9.6 | 10.4 | 0.00 | 0.00 | 0.00 | 87 | 1005.3 |
| 20260505084651 | 71 | 197 | 7.0 | 14.8 | 0.00 | 0.00 | 0.00 | 87 | 1005.2 |
| 20260505084150 | 71 | 203 | 6.1 | 13.9 | 0.00 | 0.00 | 0.00 | 87 | 1005.2 |
| 20260505083647 | 71 | 200 | 6.1 | 11.3 | 0.00 | 0.00 | 0.00 | 87 | 1005.4 |
| 20260505083143 | 71 | 206 | 12.2 | 18.2 | 0.00 | 0.00 | 0.00 | 86 | 1005.2 |
| 20260505082639 | 71 | 196 | 8.7 | 13.9 | 0.00 | 0.00 | 0.00 | 86 | 1005.2 |
| 20260505082137 | 71 | 196 | 7.0 | 16.5 | 0.00 | 0.00 | 0.00 | 86 | 1005.5 |
| 20260505081632 | 71 | 199 | 8.7 | 14.8 | 0.00 | 0.00 | 0.00 | 86 | 1005.4 |
| 20260505081130 | 71 | 182 | 5.2 | 13.9 | 0.00 | 0.00 | 0.00 | 86 | 1005.6 |
| 20260505080627 | 71 | 204 | 5.2 | 15.6 | 0.00 | 0.00 | 0.00 | 86 | 1005.5 |
| 20260505080123 | 71 | 195 | 7.0 | 18.2 | 0.00 | 0.00 | 0.00 | 86 | 1005.5 |
| 20260505075619 | 71 | 134 | 1.7 | 12.2 | 0.00 | 0.00 | 0.00 | 86 | 1005.7 |
| 20260505075116 | 71 | 203 | 7.8 | 14.8 | 0.00 | 0.00 | 0.00 | 85 | 1005.8 |
| 20260505074613 | 71 | 177 | 4.3 | 12.2 | 0.00 | 0.00 | 0.00 | 85 | 1005.8 |
| 20260505074110 | 71 | 176 | 1.7 | 13.0 | 0.00 | 0.00 | 0.00 | 85 | 1005.9 |
| 20260505073608 | 71 | 192 | 12.2 | 15.6 | 0.00 | 0.00 | 0.00 | 85 | 1005.8 |
| 20260505073106 | 71 | 176 | 7.8 | 11.3 | 0.00 | 0.00 | 0.00 | 85 | 1005.8 |
| 20260505072601 | 71 | 183 | 4.3 | 12.2 | 0.00 | 0.00 | 0.00 | 84 | 1005.9 |
| 20260505072058 | 71 | 190 | 5.2 | 15.6 | 0.00 | 0.00 | 0.00 | 84 | 1006.1 |
| 20260505071553 | 72 | 180 | 5.2 | 14.8 | 0.00 | 0.00 | 0.00 | 83 | 1006.2 |
| 20260505071052 | 72 | 185 | 3.5 | 11.3 | 0.00 | 0.00 | 0.00 | 83 | 1006.4 |
| 20260505070549 | 72 | 184 | 13.9 | 13.9 | 0.00 | 0.00 | 0.00 | 83 | 1006.3 |
| 20260505070044 | 72 | 196 | 3.5 | 11.3 | 0.00 | 0.00 | 0.00 | 83 | 1006.4 |
| 20260505065540 | 72 | 203 | 8.7 | 15.6 | 0.00 | 0.00 | 0.00 | 82 | 1006.3 |
| 20260505065038 | 72 | 170 | 5.2 | 11.3 | 0.00 | 0.00 | 0.00 | 82 | 1006.4 |
| 20260505064534 | 72 | 174 | 2.6 | 11.3 | 0.00 | 0.00 | 0.00 | 82 | 1006.4 |
| 20260505064033 | 72 | 177 | 2.6 | 13.9 | 0.00 | 0.00 | 0.00 | 81 | 1006.6 |
| 20260505063530 | 72 | 191 | 9.6 | 14.8 | 0.00 | 0.00 | 0.00 | 81 | 1006.7 |
| 20260505063026 | 73 | 167 | 7.8 | 10.4 | 0.00 | 0.00 | 0.00 | 81 | 1006.6 |
| 20260505062522 | 73 | 181 | 5.2 | 16.5 | 0.00 | 0.00 | 0.00 | 80 | 1006.8 |
| 20260505062020 | 73 | 178 | 5.2 | 13.0 | 0.00 | 0.00 | 0.00 | 80 | 1006.8 |
| 20260505061517 | 73 | 198 | 7.8 | 15.6 | 0.00 | 0.00 | 0.00 | 79 | 1007.0 |
| 20260505061015 | 73 | 168 | 9.6 | 12.2 | 0.00 | 0.00 | 0.00 | 79 | 1006.9 |
| 20260505060512 | 73 | 158 | 4.3 | 17.4 | 0.00 | 0.00 | 0.00 | 79 | 1006.8 |
| 20260505060008 | 73 | 191 | 11.3 | 16.5 | 0.00 | 0.00 | 0.00 | 78 | 1006.8 |
| 20260505055504 | 73 | 194 | 5.2 | 13.0 | 0.00 | 0.00 | 0.00 | 78 | 1006.9 |
| 20260505055001 | 73 | 183 | 4.3 | 14.8 | 0.00 | 0.00 | 0.00 | 77 | 1006.8 |
| 20260505054458 | 73 | 164 | 5.2 | 9.6 | 0.00 | 0.00 | 0.00 | 77 | 1006.8 |
| 20260505053956 | 73 | 185 | 2.6 | 8.7 | 0.00 | 0.00 | 0.00 | 77 | 1006.7 |
| 20260505053453 | 73 | 186 | 6.1 | 8.7 | 0.00 | 0.00 | 0.00 | 76 | 1006.7 |
| 20260505052949 | 73 | 139 | 1.7 | 7.8 | 0.00 | 0.00 | 0.00 | 76 | 1006.7 |
| 20260505052447 | 74 | 181 | 7.0 | 9.6 | 0.00 | 0.00 | 0.00 | 75 | 1006.9 |
| 20260505051944 | 74 | 162 | 5.2 | 14.8 | 0.00 | 0.00 | 0.00 | 75 | 1007.1 |
| 20260505051441 | 74 | 190 | 6.1 | 12.2 | 0.00 | 0.00 | 0.00 | 74 | 1007.2 |
| 20260505050939 | 74 | 211 | 5.2 | 9.6 | 0.00 | 0.00 | 0.00 | 74 | 1007.1 |
| 20260505050437 | 74 | 195 | 5.2 | 13.9 | 0.00 | 0.00 | 0.00 | 73 | 1007.2 |
| 20260505041405 | 75 | 181 | 5.2 | 17.4 | 0.00 | 0.00 | 0.00 | 72 | 1007.2 |
| 20260505040902 | 75 | 199 | 6.1 | 12.2 | 0.00 | 0.00 | 0.00 | 73 | 1007.3 |
| 20260505040359 | 75 | 156 | 3.5 | 12.2 | 0.00 | 0.00 | 0.00 | 73 | 1007.2 |
| 20260505035856 | 75 | 177 | 6.1 | 10.4 | 0.00 | 0.00 | 0.00 | 72 | 1007.3 |
| 20260505035352 | 75 | 200 | 5.2 | 5.2 | 0.00 | 0.00 | 0.00 | 73 | 1007.1 |
| 20260505034849 | 75 | 212 | 4.3 | 9.6 | 0.00 | 0.00 | 0.00 | 72 | 1007.4 |
| 20260505034345 | 75 | 149 | 2.6 | 7.0 | 0.00 | 0.00 | 0.00 | 73 | 1007.1 |
| 20260505033843 | 75 | 207 | 7.8 | 9.6 | 0.00 | 0.00 | 0.00 | 73 | 1007.0 |
| 20260505033339 | 75 | 170 | 2.6 | 10.4 | 0.00 | 0.00 | 0.00 | 72 | 1007.0 |
| 20260505032838 | 75 | 199 | 6.1 | 7.0 | 0.00 | 0.00 | 0.00 | 72 | 1006.9 |
| 20260505032334 | 75 | 199 | 7.0 | 9.6 | 0.00 | 0.00 | 0.00 | 72 | 1007.0 |
| 20260505031831 | 75 | 165 | 2.6 | 13.0 | 0.00 | 0.00 | 0.00 | 72 | 1007.0 |
| 20260505031327 | 75 | 187 | 5.2 | 10.4 | 0.00 | 0.00 | 0.00 | 72 | 1007.2 |
| 20260505030825 | 75 | 194 | 6.1 | 8.7 | 0.00 | 0.00 | 0.00 | 72 | 1007.1 |
| 20260505030321 | 75 | 180 | 6.1 | 13.9 | 0.00 | 0.00 | 0.00 | 72 | 1007.4 |
| 20260505025816 | 75 | 168 | 2.6 | 5.2 | 0.00 | 0.00 | 0.00 | 72 | 1007.2 |
| 20260505025314 | 75 | 182 | 4.3 | 9.6 | 0.00 | 0.00 | 0.00 | 72 | 1007.5 |
| 20260505024812 | 75 | 192 | 6.1 | 10.4 | 0.00 | 0.00 | 0.00 | 72 | 1007.3 |
| 20260505024309 | 75 | 153 | 4.3 | 8.7 | 0.00 | 0.00 | 0.00 | 72 | 1007.2 |
| 20260505023807 | 75 | 191 | 5.2 | 11.3 | 0.00 | 0.00 | 0.00 | 72 | 1007.1 |
| 20260505023303 | 75 | 167 | 3.5 | 8.7 | 0.00 | 0.00 | 0.00 | 72 | 1007.2 |
| 20260505022801 | 75 | 174 | 2.6 | 10.4 | 0.00 | 0.00 | 0.00 | 72 | 1007.1 |
| 20260505022258 | 75 | 140 | 1.7 | 11.3 | 0.00 | 0.00 | 0.00 | 72 | 1007.0 |
| 20260505021755 | 75 | 159 | 1.7 | 11.3 | 0.00 | 0.00 | 0.00 | 71 | 1007.1 |
| 20260505021251 | 75 | 150 | 1.7 | 8.7 | 0.00 | 0.00 | 0.00 | 71 | 1007.0 |
| 20260505020748 | 75 | 192 | 7.0 | 11.3 | 0.00 | 0.00 | 0.00 | 71 | 1007.0 |
| 20260505020242 | 75 | 163 | 2.6 | 9.6 | 0.00 | 0.00 | 0.00 | 71 | 1007.1 |
| 20260505015740 | 75 | 194 | 2.6 | 7.8 | 0.00 | 0.00 | 0.00 | 70 | 1007.0 |
| 20260505015237 | 75 | 163 | 2.6 | 11.3 | 0.00 | 0.00 | 0.00 | 70 | 1006.8 |
| 20260505014734 | 76 | 148 | 1.7 | 8.7 | 0.00 | 0.00 | 0.00 | 70 | 1006.9 |
| 20260505014231 | 76 | 139 | 4.3 | 6.1 | 0.00 | 0.00 | 0.00 | 69 | 1007.1 |
| 20260505013728 | 76 | 162 | 3.5 | 10.4 | 0.00 | 0.00 | 0.00 | 69 | 1007.1 |
| 20260505013225 | 76 | 111 | 2.6 | 6.1 | 0.00 | 0.00 | 0.00 | 69 | 1007.0 |
| 20260505012723 | 76 | 186 | 3.5 | 7.8 | 0.00 | 0.00 | 0.00 | 69 | 1006.9 |
| 20260505012220 | 76 | 166 | 1.7 | 8.7 | 0.00 | 0.00 | 0.00 | 68 | 1006.9 |
| 20260505011716 | 76 | 143 | 2.6 | 5.2 | 0.00 | 0.00 | 0.00 | 68 | 1007.2 |
| 20260505011214 | 77 | 156 | 2.6 | 7.8 | 0.00 | 0.00 | 0.00 | 68 | 1007.0 |
| 20260505010709 | 77 | 152 | 2.6 | 7.0 | 0.00 | 0.00 | 0.00 | 67 | 1006.9 |
| 20260505010206 | 77 | 167 | 5.2 | 10.4 | 0.00 | 0.00 | 0.00 | 67 | 1006.8 |
| 20260505005702 | 77 | 173 | 4.3 | 10.4 | 0.00 | 0.00 | 0.00 | 66 | 1007.0 |
| 20260505005159 | 77 | 144 | 2.6 | 8.7 | 0.00 | 0.00 | 0.00 | 67 | 1007.1 |
| 20260505004656 | 77 | 199 | 9.6 | 13.0 | 0.00 | 0.00 | 0.00 | 66 | 1007.1 |
| 20260505004152 | 77 | 174 | 5.2 | 7.0 | 0.00 | 0.00 | 0.00 | 66 | 1007.0 |
| 20260505003649 | 77 | 156 | 1.7 | 12.2 | 0.00 | 0.00 | 0.00 | 66 | 1007.3 |
| 20260505003148 | 77 | 187 | 7.0 | 12.2 | 0.00 | 0.00 | 0.00 | 66 | 1007.2 |
| 20260505002644 | 77 | 173 | 3.5 | 12.2 | 0.00 | 0.00 | 0.00 | 66 | 1007.1 |
| 20260505002142 | 78 | 160 | 5.2 | 15.6 | 0.00 | 0.00 | 0.00 | 65 | 1007.2 |
| 20260505001638 | 78 | 180 | 6.1 | 12.2 | 0.00 | 0.00 | 0.00 | 65 | 1007.3 |
| 20260505001136 | 78 | 194 | 6.1 | 13.0 | 0.00 | 0.00 | 0.00 | 65 | 1007.5 |
| 20260505000633 | 78 | 172 | 9.6 | 17.4 | 0.00 | 0.00 | 0.00 | 64 | 1007.4 |
| 20260505000131 | 78 | 150 | 6.1 | 7.8 | 0.00 | 0.00 | 0.00 | 65 | 1007.4 |
| 20260504235627 | 78 | 182 | 2.6 | 14.8 | 0.00 | 0.00 | 0.00 | 65 | 1007.5 |
| 20260504235123 | 78 | 214 | 5.2 | 9.6 | 0.00 | 0.00 | 0.00 | 64 | 1007.6 |
| 20260504234621 | 78 | 166 | 3.5 | 9.6 | 0.00 | 0.00 | 0.00 | 64 | 1007.6 |
| 20260504234118 | 79 | 165 | 4.3 | 9.6 | 0.00 | 0.00 | 0.00 | 64 | 1007.7 |
| 20260504233614 | 79 | 185 | 7.0 | 11.3 | 0.00 | 0.00 | 0.00 | 63 | 1007.8 |
| 20260504233110 | 79 | 198 | 2.6 | 9.6 | 0.00 | 0.00 | 0.00 | 63 | 1007.7 |
| 20260504232607 | 79 | 165 | 11.3 | 15.6 | 0.00 | 0.00 | 0.00 | 62 | 1007.7 |
| 20260504232105 | 79 | 203 | 9.6 | 14.8 | 0.00 | 0.00 | 0.00 | 63 | 1007.7 |
| 20260504231601 | 79 | 146 | 3.5 | 14.8 | 0.00 | 0.00 | 0.00 | 63 | 1007.7 |
| 20260504231057 | 79 | 179 | 3.5 | 15.6 | 0.00 | 0.00 | 0.00 | 63 | 1007.8 |
| 20260504230553 | 79 | 194 | 8.7 | 16.5 | 0.00 | 0.00 | 0.00 | 62 | 1007.9 |
| 20260504230052 | 79 | 181 | 5.2 | 9.6 | 0.00 | 0.00 | 0.00 | 62 | 1007.8 |
| 20260504225549 | 79 | 169 | 10.4 | 13.0 | 0.00 | 0.00 | 0.00 | 62 | 1008.2 |
| 20260504225046 | 79 | 188 | 9.6 | 18.2 | 0.00 | 0.00 | 0.00 | 62 | 1008.1 |